{"data":{"norad_id":48679,"intl_designator":"2021-044AT","name":"STARLINK-2648","alt_names":[],"object_type":"PAYLOAD","status":"ACTIVE","operator":null,"country":"US","launch_date":"2021-05-26","launch_site_code":"AFETR","launch_vehicle":null,"mission":null,"orbit_class":"UNKNOWN","rcs_meters":null,"size_class":null,"mass_kg":null,"dimensions":null,"purposes":["comms"],"wikipedia_slug":null,"has_3d_model":false,"image_url":null,"decayed_at":null,"tle_current":{"epoch":"2026-05-25T04:11:45.896064Z","epoch_age_seconds":56613,"freshness":"FRESH","line1":"1 48679U 21044AT  26145.17483676 -.00058970  00000+0 -20392-2 0  9993","line2":"2 48679  53.1587 118.6082 0001096  93.5903 266.5223 15.29485810275526","mean_motion":15.2948581,"eccentricity":0.0001096,"inclination_deg":53.1587,"raan_deg":118.6082,"arg_perigee_deg":93.5903,"mean_anomaly_deg":266.5223,"bstar":-0.0020392,"rev_number":27552,"period_min":94.149287988491,"perigee_km":476.596980572,"apogee_km":478.09970295891,"semimajor_km":6855.4853417655,"source":"CELESTRAK","updated_at":"2026-05-25T13:38:16.760494Z"}}}